Location: Glencliff
(36.1226°N, 86.7183°W)
Time: 20:21:32
(UTC+00:00)

SJ 16-02 - Pass Details

Date: 25 August 2019
Orbit: 605 x 618 km, 75.0° (Epoch: 15 September)

Event Time Altitude Azimuth Distance (km) Brightness Sun altitude
Exits shadow 00:50:25 - 139° (SE) 2,602 4.0 -5.6°
Reaches altitude 10° 00:53:41 10° 106° (ESE) 1,966 3.2 -6.2°
Maximum altitude 00:54:35 11° 94° (E) 1,930 3.3 -6.4°
Drops below altitude 10° 00:55:30 10° 82° (E) 1,971 3.4 -6.6°
Sets 00:59:40 0° 43° (NE) 2,886 4.5 -7.4°
